Weather History for Oxford, CT

Change the Weather History Date:

Monday, January 21, 2013

  Actual Average Record
Temperature  
Mean Temperature 28 °F -  
Max Temperature 39 °F 28 °F 57 °F (2006)
Min Temperature 17 °F 15 °F 0 °F (2005)
Degree Days  
Heating Degree Days 37    
Moisture  
Dew Point 10 °F    
Average Humidity 58    
Maximum Humidity 80    
Minimum Humidity 36    
Precipitation  
Precipitation 0.00 in - - ()
Sea Level Pressure  
Sea Level Pressure 29.94 in    
Wind  
Wind Speed 5 mph (West)    
Max Wind Speed 10 mph    
Max Gust Speed 20 mph    
Visibility 8 miles    
Events Snow    
Averages and records for this station are not official NWS values.
T = Trace of Precipitation, MM = Missing Value Source: NWS Daily Summary

Daily Weather History Graph

Daily Weather History Graph

Search for Another Location

Airport:

Trip Planner

Search our weather history database for the weather conditions in past years. The results will help you decide how hot, cold, wet, or windy it might be!

Date:

Astronomy

Jan. 21, 2013 Rise Set
Actual Time 7:13 AM EST 4:55 PM EST
Civil Twilight 6:43 AM EST 5:25 PM EST
Nautical Twilight 6:09 AM EST 5:59 PM EST
Astronomical Twilight 5:36 AM EST 6:32 PM EST
Moon 12:32 PM EST (1/21) 2:39 AM EST (1/21)
Length of Visible Light 10h 42m
Length of Day
9h 42m
Waxing Gibbous, 75% of the Moon is Illuminated
Jan 21
Waxing Gibbous
Jan 26
Full
Feb 3
Last Quarter
Feb 10
New
Feb 17
First Quarter

Hourly Weather History & Observations

Time (EST) Temp. Windchill Dew Point Humidity Pressure Visibility Wind Dir Wind Speed Gust Speed Precip Events Conditions
12:35 AM 24.8 °F 14.6 °F 3.2 °F 40% 29.97 in 10.0 mi WNW 10.4 mph 18.4 mph N/A   Clear
12:55 AM 24.8 °F 16.1 °F 3.2 °F 40% 29.98 in 10.0 mi WNW 8.1 mph 19.6 mph N/A   Clear
1:15 AM 24.8 °F 17.9 °F 5.0 °F 43% 29.99 in 10.0 mi NW 5.8 mph - N/A   Clear
1:35 AM 24.8 °F 15.3 °F 3.2 °F 40% 30.00 in 10.0 mi WNW 9.2 mph - N/A   Clear
1:55 AM 24.8 °F 16.9 °F 3.2 °F 40% 30.00 in 10.0 mi WNW 6.9 mph - N/A   Clear
2:15 AM 24.8 °F 19.1 °F 5.0 °F 43% 30.00 in 10.0 mi WNW 4.6 mph - N/A   Clear
2:35 AM 24.8 °F 16.9 °F 5.0 °F 43% 30.01 in 10.0 mi WNW 6.9 mph - N/A   Clear
3:15 AM 23.0 °F 15.8 °F 6.8 °F 50% 30.02 in 10.0 mi WNW 5.8 mph - N/A   Clear
3:35 AM 23.0 °F 17.0 °F 6.8 °F 50% 30.02 in 10.0 mi WNW 4.6 mph - N/A   Clear
3:55 AM 23.0 °F 17.0 °F 6.8 °F 50% 30.02 in 10.0 mi NW 4.6 mph - N/A   Clear
4:15 AM 21.2 °F 12.6 °F 5.0 °F 50% 30.03 in 10.0 mi WNW 6.9 mph - N/A   Clear
4:35 AM 21.2 °F 16.4 °F 3.2 °F 46% 30.03 in 10.0 mi NW 3.5 mph - N/A   Clear
4:55 AM 21.2 °F 16.4 °F 3.2 °F 46% 30.03 in 10.0 mi NW 3.5 mph - N/A   Clear
5:45 AM 21.2 °F - 1.4 °F 42% 30.03 in 10.0 mi Calm Calm - N/A   Clear
6:45 AM 17.6 °F - 1.4 °F 49% 30.05 in 10.0 mi Calm Calm - N/A   Clear
7:45 AM 17.6 °F - 5.0 °F 58% 30.05 in 10.0 mi Calm Calm - N/A   Clear
8:45 AM 23.0 °F - 5.0 °F 46% 30.07 in 10.0 mi Calm Calm - N/A   Overcast
9:45 AM 23.0 °F - 3.2 °F 43% 30.07 in 10.0 mi Calm Calm - N/A   Mostly Cloudy
10:45 AM 24.8 °F 19.1 °F 6.8 °F 46% 30.06 in 10.0 mi SSW 4.6 mph - N/A   Overcast
11:45 AM 24.8 °F 19.1 °F 6.8 °F 46% 30.00 in 10.0 mi SSW 4.6 mph - N/A   Overcast
12:45 PM 26.6 °F 20.0 °F 6.8 °F 43% 29.97 in 10.0 mi SW 5.8 mph - N/A   Overcast
1:45 PM 26.6 °F 20.0 °F 8.6 °F 47% 29.94 in 10.0 mi SSW 5.8 mph - N/A   Overcast
2:45 PM 24.8 °F 16.9 °F 12.2 °F 59% 29.93 in 5.0 mi SSW 6.9 mph 16.1 mph N/A Snow Light Snow
3:45 PM 39.2 °F 34.2 °F 14.0 °F 36% 29.90 in 2.0 mi South 6.9 mph - N/A   Unknown
4:45 PM 24.8 °F 17.9 °F 15.8 °F 69% 29.88 in 2.0 mi South 5.8 mph - N/A Snow Light Snow
5:45 PM 24.8 °F - 17.6 °F 74% 29.88 in 2.5 mi Calm Calm - N/A Snow Light Snow
6:10 PM 24.8 °F - 17.6 °F 74% 29.87 in 6.0 mi Calm Calm - N/A Snow Light Snow
6:45 PM 24.8 °F - 17.6 °F 74% 29.87 in 5.0 mi Calm Calm - N/A Snow Light Snow
7:45 PM 24.8 °F - 17.6 °F 74% 29.87 in 3.0 mi Calm Calm - N/A Snow Light Snow
8:20 PM 24.8 °F - 17.6 °F 74% 29.85 in 2.0 mi Calm Calm - N/A Snow Light Snow
8:55 PM 23.0 °F 18.4 °F 17.6 °F 80% 29.85 in 10.0 mi West 3.5 mph - N/A   Mostly Cloudy
9:15 PM 23.0 °F - 17.6 °F 80% 29.84 in 10.0 mi Calm Calm - N/A   Overcast
9:35 PM 23.0 °F - 17.6 °F 80% 29.82 in 10.0 mi Calm Calm - N/A   Overcast
9:55 PM 23.0 °F - 17.6 °F 80% 29.83 in 9.0 mi Calm Calm - N/A   Overcast
10:35 PM 21.2 °F - 15.8 °F 80% 29.80 in 9.0 mi Calm Calm - N/A   Overcast
10:55 PM 21.2 °F - 15.8 °F 80% 29.81 in 10.0 mi Calm Calm - N/A   Overcast
11:15 PM 21.2 °F - 15.8 °F 80% 29.80 in 9.0 mi Calm Calm - N/A   Overcast
11:35 PM 19.4 °F - 14.0 °F 80% 29.78 in 8.0 mi Calm Calm - N/A   Scattered Clouds
11:55 PM 19.4 °F - 12.2 °F 74% 29.77 in 5.0 mi Calm Calm - N/A   Clear